World > North America > United States > New York

Colden, New York Regional Weather

Lat: 42.64N, Lon: 78.69W
Wx Zone: NYZ085
Warning NWS WEATHER ALERT - (More Info. Click Here) Warning
Feedback

Colden, NY Regional Weather

Expires:201910160500;;776456
ASUS41 KALY 160410
RWRALY

NEW YORK STATE HOURLY WEATHER ROUNDUP
NATIONAL WEATHER SERVICE ALBANY NY
1200 AM EDT WED OCT 16 2019

NOTE: "FAIR" INDICATES FEW OR NO CLOUDS BELOW 12,000 FEET WITH NO
SIGNIFICANT WEATHER AND/OR NO OBSTRUCTIONS TO VISIBILITY.


NYZ001>004-010>016-019>021-085-160500-
WEST

  
CITY           SKY/WX    TMP DP  RH WIND       PRES   REMARKS
NIAGARA FALLS  FAIR      47  41  80 SE7       29.81F                  
BUFFALO        FAIR      50  40  68 SE7       29.82F                  
DUNKIRK        FAIR      59  41  51 S18G26    29.80F                  
JAMESTOWN      FAIR      51  41  68 S8        29.85F                  
WELLSVILLE     FAIR      51  39  63 S12G25    29.91F                  
ROCHESTER      MOCLDY    51  40  65 SE9       29.87F                  
PENN YAN       FAIR      44  39  82 S3        29.92F                  
$$

             KEY
       WCI = WIND CHILL INDEX
       VSB = VISIBILITY
       HX  = HEAT INDEX
$$
  

SKY/WX - Weather  TMP - Temperature  DP - Dew Point  RH - Relative Humidity
WIND - Wind Direction/Speed PRES - Barometric Pressure VSB - Visibility
WCI - Wind Chill Index E13G22 Wind - East Wind 13 mph/Gusts of 22 mph